Temp_Advection
nan nan nan nan nan nan nan nan nan nan nan nan nan nan nan nan nan nan nan nan nan nan nan nan nan nan nan nan nan nan nan nan nan nan nan nan nan nan nan nan nan nan nan nan nan nan nan nan nan nan nan nan nan nan nan nan nan nan nan nan nan nan nan nan nan nan nan nan nan
nan 0 0 0 0 0 0 0 -0 -0 -0 -0 -0 -0 -0 -0 0 0 0 0 0 0 0 0 0 1 1 1 1 1 1 0 -0 0 1 1 1 1 1 1 1 0 0 0 0 1 1 1 1 1 0 -0 -0 -0 -0 -1 -1 -1 -1 -0 2 3 2 1 0 -0 -0 0 nan
nan -0 -0 0 0 0 0 0 0 0 0 0 0 -0 -0 -0 -0 0 -0 0 0 0 1 1 0 0 1 1 1 1 1 0 0 0 0 0 1 1 1 1 0 0 0 0 0 0 1 1 1 1 1 1 0 -0 -1 -1 -1 -1 -1 -1 -0 1 2 2 1 0 0 0 nan
nan -1 -0 -0 -0 0 0 -0 0 0 0 0 0 0 -0 -0 -0 -0 -0 0 0 0 0 0 1 1 1 1 1 1 0 0 0 0 0 -0 0 0 1 0 0 0 0 0 1 1 1 1 1 1 1 0 -0 -0 -0 -0 -0 -1 -0 -0 -0 0 1 2 1 0 0 0 nan
nan -0 -1 -1 -0 -0 -0 -0 0 0 0 0 0 0 0 -0 -0 -0 -0 -0 0 0 0 1 1 1 0 0 1 1 0 0 0 -0 -0 -0 0 1 1 1 1 1 0 0 0 0 1 1 1 1 0 -0 -0 -0 -0 -0 -0 0 0 0 0 0 1 1 1 0 -0 -0 nan
nan -1 -1 -1 -0 -0 -0 -0 -0 -0 0 0 0 -0 -0 -0 -0 -0 -0 -0 -0 0 0 0 0 0 0 1 1 1 0 -0 -1 -1 -1 0 1 1 1 1 1 1 1 0 1 1 2 2 1 0 -1 -1 -1 -1 -0 0 0 1 0 0 0 0 0 1 0 0 -0 -0 nan
nan -1 -1 -1 -0 -0 -0 -0 -0 -0 -0 -0 -0 -0 -0 0 0 -0 -0 -0 0 0 0 0 0 0 1 1 1 0 -0 -1 -1 -1 0 1 1 1 1 1 1 1 1 1 2 2 1 0 -1 -1 -1 -0 0 0 0 0 0 -0 0 -0 -0 -0 0 0 0 0 0 -0 nan
nan -1 -1 -0 -0 -0 -0 -0 -0 -0 -0 -0 -0 -0 -0 0 0 0 -0 0 0 -0 0 0 1 1 1 1 0 -0 -1 -1 -1 0 1 1 1 1 1 1 1 1 1 1 1 1 -0 -1 -1 -1 -0 0 0 0 0 0 0 0 -0 -0 -0 -0 -0 0 0 0 -0 -0 nan
nan -0 -0 -0 -0 -0 -0 -0 -0 -0 -0 -0 -0 -0 0 1 1 0 -0 -0 -0 0 1 1 1 0 0 0 -0 -0 -0 -0 0 1 1 1 1 1 1 1 1 1 1 1 1 0 -0 -1 -0 0 0 0 0 0 0 1 1 0 0 -0 -0 -0 -0 -0 -0 -0 -0 -0 nan
nan -0 -0 -0 -0 -0 -0 -0 -0 -0 -0 -0 -0 0 1 1 1 0 -0 -0 0 1 1 1 0 0 0 0 0 0 0 1 1 1 2 1 1 1 1 0 0 1 1 1 1 -0 -0 -0 -0 -0 0 0 0 0 0 1 1 0 -0 -0 -0 -0 -0 -0 -1 -0 -1 -1 nan
nan -0 -0 -0 -0 -0 -0 -1 -1 -0 -0 -0 -0 0 1 1 0 -0 -0 -0 0 0 1 0 0 0 0 1 1 1 1 1 1 1 1 1 1 0 0 0 1 1 1 1 0 -0 -0 -0 -0 -0 -0 0 0 0 0 1 1 0 0 -0 -0 -0 -0 -1 -0 -0 -1 -1 nan
nan -0 -0 -0 -0 -0 -0 -1 -1 -0 -0 -0 0 0 0 -0 -0 -0 -0 -0 0 1 0 -0 0 0 1 1 1 1 1 1 1 1 0 0 0 0 1 1 1 1 1 0 -0 -0 -0 -0 -0 -0 -0 0 0 0 0 0 0 0 0 -0 -0 -0 -0 -0 -0 -0 -0 -0 nan
nan -0 -0 -0 -0 -0 -0 -0 -0 -0 0 0 0 0 -0 -0 0 0 0 0 0 1 0 0 1 1 1 1 1 1 1 1 1 1 0 0 0 0 1 1 1 1 0 -0 0 0 -0 -0 -0 -0 -0 0 0 0 0 0 0 0 -0 -0 0 0 -0 -0 -0 0 0 0 nan
nan -0 -0 -0 -0 -0 -0 -0 0 0 0 -0 -0 -0 -0 -0 0 0 0 0 1 1 1 1 1 1 1 1 1 1 1 1 0 0 0 1 1 1 1 1 1 0 0 0 -0 -0 -0 -0 -0 -0 0 0 0 0 0 0 -0 -0 -0 -0 -0 -0 0 0 0 0 0 0 nan
nan -0 -0 -0 -0 -0 0 0 -0 -0 -0 -0 -0 -0 -0 0 0 0 0 1 1 1 1 1 1 1 0 0 0 0 0 0 1 1 1 1 1 1 1 0 0 0 0 -0 -0 -0 -0 0 0 0 0 0 0 0 0 -0 -0 -0 -0 -0 -0 -0 -0 -0 -0 -0 -0 0 nan
nan -0 0 0 0 0 0 -0 -0 -0 -0 -0 -0 -0 -0 0 0 0 0 0 0 0 0 0 0 0 0 0 0 1 1 1 1 1 1 1 1 0 0 0 0 0 -0 -0 0 0 -0 0 0 0 0 0 0 0 0 0 -0 -0 -0 -0 -0 -0 -0 -0 -1 -1 -1 -0 nan
nan 0 0 0 0 0 -0 -0 -0 -0 -0 -0 -0 -0 -0 0 0 0 0 0 0 0 0 0 0 0 0 1 1 1 1 1 1 1 0 0 0 0 0 0 0 -0 -0 0 0 0 -0 -0 0 0 0 0 0 0 0 0 -0 -0 -0 -0 -0 -0 -0 -0 -1 -1 -1 -1 nan
nan 0 0 0 0 -0 -0 -0 -0 0 0 0 0 0 0 0 0 0 0 0 0 0 1 1 1 1 1 1 1 1 1 0 0 1 1 0 0 0 0 0 -0 -0 0 0 0 0 0 -0 -0 -0 -0 -0 0 0 0 -0 -0 -0 -0 -0 -0 0 0 -0 -0 -1 -1 -1 nan
nan 0 0 0 -0 -0 -0 -0 0 0 0 0 0 0 1 1 1 1 1 1 1 1 1 1 1 1 1 1 1 1 1 0 0 0 0 0 -0 -0 -0 -0 0 0 0 0 0 0 0 -0 -0 -0 -0 -0 -0 -0 -0 -0 -0 -0 -0 -0 -0 -0 0 1 0 -0 -1 -1 nan
nan -0 -0 -0 -0 -0 -0 0 0 0 0 1 1 1 1 1 1 1 1 1 1 1 1 1 1 1 1 1 1 0 0 0 0 0 -0 -0 -0 -0 -0 0 0 0 0 0 0 0 0 -0 -0 -0 -0 -0 -0 -0 -0 -0 -0 -0 -0 -0 -0 -0 0 1 1 0 0 -0 nan
nan -0 0 0 0 0 0 0 0 0 1 1 1 1 1 0 0 1 1 1 1 0 0 0 1 1 0 0 0 0 0 -0 -0 -0 -0 -0 -0 -0 0 0 0 0 0 0 0 0 -0 -0 -0 -0 -0 -0 -0 -0 -0 -0 -0 -0 -0 -0 -0 -0 -0 0 1 1 1 1 nan
nan 0 0 0 0 0 0 0 0 0 0 0 0 0 0 0 0 0 0 0 0 0 0 0 0 0 0 -0 -0 -0 -0 -0 -0 -0 -0 -0 -0 -0 0 0 0 0 0 0 0 -0 -0 -0 -0 -0 -0 -0 -0 -0 -0 -0 -0 -0 -0 -0 -0 -0 -0 0 1 1 1 1 nan
nan 0 0 0 0 0 0 0 0 0 0 0 0 0 0 0 0 0 0 0 0 0 0 0 -0 -0 -0 -0 -0 -0 -0 -0 -0 -0 -0 -0 -0 -0 0 0 0 0 0 -0 -0 -0 -0 -0 -0 -0 -0 -0 -0 -0 -0 -0 -0 -0 -0 -0 -0 -0 -0 -0 0 1 1 1 nan
nan 0 0 0 0 0 0 0 0 0 0 0 0 0 0 0 0 0 0 0 0 0 -0 -0 -0 -0 -0 -0 -0 -0 -0 -0 -0 -0 -0 0 0 0 0 0 0 0 0 0 -0 -0 -0 -0 -0 -0 -0 -0 -0 -0 -0 -0 -0 -0 -0 -0 -0 -0 -0 -0 0 0 1 1 nan
nan 0 0 0 0 0 0 0 0 0 0 0 0 0 0 0 0 0 0 0 0 0 0 0 -0 -0 -0 0 0 0 0 0 0 0 0 0 0 0 0 0 0 0 0 0 0 -0 -0 -0 -0 -0 -0 -0 -0 -0 -0 -0 0 -0 -0 -0 -0 -0 0 0 0 0 0 0 nan
nan 0 0 0 0 0 0 0 0 0 -0 -0 0 0 0 0 0 0 0 0 0 0 0 0 0 0 0 0 0 0 0 0 0 0 0 0 0 0 0 0 0 0 0 0 0 -0 -0 -0 -0 -0 -0 -0 -0 0 0 0 0 -0 -0 -0 -0 -0 0 0 0 0 0 0 nan
nan 0 0 0 0 0 0 0 0 0 0 0 0 0 0 0 0 0 0 0 0 0 0 0 0 0 0 0 0 0 0 0 0 0 0 0 0 0 0 0 0 0 -0 0 0 0 0 -0 -0 -0 -0 -0 -0 -0 -0 0 0 0 -0 -0 -0 -0 -0 0 0 0 0 0 nan
nan -0 -0 -0 -0 0 0 0 0 0 0 0 0 0 0 0 0 0 0 0 0 0 0 0 0 0 0 0 0 0 0 0 0 0 0 0 0 0 0 0 0 -0 -0 -0 -0 0 0 0 -0 -0 -0 -0 -0 -0 -0 -0 -0 -0 -0 -0 -0 -0 0 0 0 0 0 0 nan
nan 0 0 0 0 0 0 0 0 0 0 0 0 0 0 0 0 0 0 0 0 0 0 0 0 0 0 0 0 0 0 0 0 -0 -0 -0 -0 -0 -0 -0 -0 -0 -0 -0 -0 -0 -0 -0 -0 -0 -0 -0 -0 -0 -0 -0 -0 -0 -0 -0 -0 0 0 0 0 0 0 0 nan
nan 0 0 0 0 0 0 0 0 0 0 0 0 0 0 0 0 0 0 0 0 0 0 -0 -0 -0 -0 -0 -0 -0 -0 -0 -0 -0 -0 -0 -0 -0 -0 -0 -0 -0 -0 -0 -0 -0 -0 -0 -0 -0 -0 -0 -0 -0 -0 -0 -0 -0 -0 0 0 0 0 0 0 0 0 -0 nan
nan 0 0 0 0 0 0 0 0 0 0 0 0 0 0 0 0 0 -0 -0 -0 -0 -0 -0 -0 -0 -0 -0 -0 -0 -0 -0 -0 -0 -0 -0 -0 -0 -0 0 0 -0 -0 -0 -0 -0 -0 -0 -0 -0 -0 0 0 0 0 -0 0 0 0 0 0 0 0 0 0 0 0 -0 nan
nan -0 -0 0 0 0 0 0 0 0 0 0 0 0 0 0 0 -0 -0 -0 -0 -0 -0 -0 0 0 -0 -0 -0 -0 -0 -0 -0 -0 -0 -0 -0 0 0 0 0 -0 -0 -0 -0 -0 -0 0 0 0 0 0 0 -0 -0 -0 -0 -0 -0 -0 -0 -0 -0 -0 -0 -0 -0 -0 nan
nan -0 -0 0 0 0 0 0 0 0 0 0 0 0 0 0 -0 -0 -0 -0 -0 -0 -0 -0 -0 -0 -0 -0 -0 -0 -0 -0 -0 -0 0 0 0 0 0 0 -0 -0 -0 -0 -0 0 0 0 0 0 0 0 -0 -0 -0 -0 -0 -0 -0 -0 -0 -0 -0 -0 0 0 0 -0 nan
nan -0 -0 0 0 0 -0 -0 -0 -0 -0 -0 -0 0 0 -0 -0 -0 -0 -0 -0 -0 -0 -0 -0 -0 -0 -0 -0 -0 0 0 0 0 0 0 0 0 0 -0 -0 -0 -0 0 0 0 0 0 0 0 0 -0 -0 -0 -0 -0 -0 -0 -0 -0 -0 -0 0 0 0 0 0 0 nan
nan -0 0 0 0 -0 -0 -0 -0 -0 -0 -0 -0 0 0 0 0 -0 -0 -0 -0 -0 -0 -0 -0 -0 -0 0 0 0 0 0 0 0 0 0 0 -0 -0 -0 -0 -0 -0 0 0 0 0 0 0 0 0 -0 -0 -0 -0 -0 -0 -0 -0 -0 0 0 0 0 0 0 0 0 nan
nan 0 0 0 -0 -0 -0 -0 -0 0 0 0 0 0 0 0 0 0 0 -0 -0 -0 -0 -0 -0 0 0 0 0 0 0 0 0 0 0 -0 -0 -0 -0 -0 -0 -0 0 0 0 0 0 0 0 0 -0 -0 -0 -0 -0 -0 -0 -0 -0 0 0 0 0 0 0 0 0 0 nan
nan 0 0 0 -0 -0 0 0 0 0 0 0 0 0 0 0 0 0 0 0 0 0 -0 -0 0 0 0 0 -0 -0 0 0 -0 -0 -0 -0 -0 -0 -0 -0 -0 -0 0 0 0 0 0 -0 -0 -0 -0 -0 -0 -0 -0 -0 -0 -0 0 0 0 0 0 0 0 0 0 0 nan
nan 0 0 0 0 0 0 0 0 0 0 0 0 0 0 0 0 -0 -0 0 0 0 -0 -0 -0 0 0 0 -0 -0 -0 -0 -0 -1 -1 -0 -0 0 0 0 -0 -0 -0 -0 -0 -0 -0 -0 -0 -0 -0 -0 -0 -0 -0 -0 -0 0 0 0 0 0 0 0 0 -0 -0 -0 nan
nan 0 0 -0 0 0 0 0 0 0 0 0 0 0 0 0 -0 -0 -0 0 0 0 0 -0 -0 -0 -0 -0 -0 -1 -1 -1 -0 -0 -0 -0 0 0 0 0 -0 -0 -0 -0 -0 -0 -0 -0 -0 -0 -0 -0 -0 -0 -0 -0 0 0 0 0 0 0 0 -0 -0 -0 -0 -0 nan
nan -0 -0 0 0 0 0 0 0 0 0 0 0 0 0 0 -0 -0 -0 -0 0 -0 -0 -0 -0 -1 -1 -0 -0 -0 -1 -1 -0 0 0 0 -0 -0 0 0 -0 -0 -0 -0 -0 -0 -0 -0 -0 -0 0 -0 -0 -0 -0 -0 0 0 0 0 0 0 0 -0 -0 -0 0 0 nan
nan nan nan nan nan nan nan nan nan nan nan nan nan nan nan nan nan nan nan nan nan nan nan nan nan nan nan nan nan nan nan nan nan nan nan nan nan nan nan nan nan nan nan nan nan nan nan nan nan nan nan nan nan nan nan nan nan nan nan nan nan nan nan nan nan nan nan nan nan
Wind_Speed
17 18 19 20 21 22 23 23 22 22 23 24 25 26 26 25 25 24 24 24 24 25 27 28 29 29 29 29 29 29 28 28 29 28 28 27 27 28 29 28 26 25 25 26 29 31 33 34 34 34 34 34 34 34 33 33 34 35 36 37 37 37 37 38 38 39 39 40 40
16 17 18 19 21 22 23 24 23 22 22 23 24 25 25 26 25 24 23 22 23 24 25 26 26 27 27 28 27 25 24 24 25 25 25 25 25 26 27 27 26 26 26 27 30 32 33 33 33 32 32 32 32 33 33 33 33 33 35 36 37 36 36 36 37 37 37 37 37
15 15 16 17 19 21 23 24 24 24 23 22 22 23 24 25 26 25 25 24 23 23 23 23 24 25 26 25 24 22 21 20 20 20 21 22 23 24 25 26 26 27 27 29 30 31 32 32 31 31 31 31 32 32 32 32 31 32 33 34 36 36 36 35 34 33 33 32 32
15 14 14 15 16 18 21 23 25 25 24 23 21 21 21 23 24 25 25 25 24 23 22 22 23 23 23 23 22 20 18 17 17 18 20 23 24 25 26 27 27 28 28 29 30 30 30 30 30 30 31 31 31 31 31 31 31 32 33 35 36 37 36 35 33 31 29 28 28
13 14 14 14 14 15 17 19 22 25 25 24 22 20 19 20 21 23 24 25 24 23 23 22 22 21 21 21 20 18 16 15 17 20 23 25 26 27 28 28 28 28 28 28 28 28 28 27 28 28 28 28 28 28 29 30 31 33 35 36 37 37 37 36 34 31 28 27 27
12 13 13 14 14 14 14 16 18 21 24 25 24 22 20 19 19 20 22 23 23 23 23 23 22 22 21 21 19 16 15 16 20 23 25 26 26 27 27 26 26 26 26 26 25 25 26 26 26 25 24 23 24 26 29 31 33 35 36 36 36 36 36 36 35 33 30 29 28
12 14 14 14 13 13 13 14 15 17 19 23 24 24 22 20 18 18 20 21 22 23 23 24 23 23 22 20 18 17 17 19 22 25 26 26 26 25 24 24 23 23 23 24 24 25 25 24 22 20 21 23 26 29 30 31 32 33 34 34 34 34 35 35 35 34 34 33 33
15 16 16 15 14 13 13 13 13 14 15 18 21 23 23 22 19 18 18 20 21 22 23 24 24 23 21 20 19 20 21 22 24 25 26 25 24 23 22 21 21 21 22 23 24 24 22 19 18 20 22 24 26 26 27 27 28 28 29 30 31 31 32 34 34 35 36 37 37
15 16 16 15 14 14 13 13 12 12 13 14 16 19 22 22 21 19 19 20 21 22 23 23 23 22 21 21 21 22 23 24 25 26 25 24 22 21 20 20 21 22 22 22 21 20 17 17 18 20 22 22 21 21 21 22 23 24 25 26 27 29 30 32 33 34 35 37 38
14 14 14 14 14 13 13 13 13 12 12 12 12 14 17 20 21 21 21 21 21 22 22 23 22 22 22 22 22 23 24 25 25 25 23 22 21 21 21 22 22 22 21 20 18 16 16 16 18 19 19 18 17 17 18 19 20 21 23 24 25 27 29 30 31 32 34 35 36
12 12 12 12 12 12 12 12 12 12 11 10 9 9 12 16 19 20 21 21 21 21 22 22 22 22 22 22 22 23 24 24 24 23 22 21 21 22 22 22 22 20 19 17 16 15 15 16 16 16 16 15 15 15 16 17 18 20 21 22 24 26 28 29 29 30 31 32 33
11 11 11 10 9 9 10 10 10 9 8 7 7 9 12 15 17 19 19 20 20 19 20 21 22 22 22 22 22 23 23 23 22 22 21 21 21 21 21 21 19 18 16 16 15 15 16 15 15 15 15 14 14 14 15 16 17 18 19 21 22 24 26 27 27 27 28 28 29
10 9 9 8 7 7 6 6 6 5 6 8 10 12 14 15 16 17 18 19 19 18 19 20 20 21 21 21 21 22 21 21 20 20 20 20 20 20 19 18 16 15 15 15 15 15 15 15 15 15 14 14 13 14 14 15 15 16 17 18 20 21 23 23 23 23 23 24 25
8 7 6 5 5 4 4 3 4 7 10 11 13 14 15 15 15 16 16 17 17 17 18 18 18 19 19 20 20 20 19 19 19 19 19 19 18 18 16 15 14 14 14 14 14 15 15 15 15 15 14 14 13 13 13 14 14 15 15 16 16 17 18 19 18 19 19 20 21
5 4 3 2 2 2 3 6 9 11 12 13 14 14 15 15 15 15 16 16 16 16 16 16 17 18 18 19 19 19 19 18 18 18 17 16 16 15 14 13 13 13 13 14 14 15 15 15 14 14 13 12 11 12 12 12 13 12 12 12 12 13 13 14 14 16 17 18 19
2 1 0 1 2 4 6 9 12 13 13 13 14 14 15 15 15 16 16 16 16 16 16 16 17 18 18 18 18 18 17 17 17 16 15 13 12 12 12 12 13 13 14 14 14 14 14 13 12 11 10 9 9 9 10 10 10 10 9 9 9 9 10 11 13 15 17 19 20
2 3 4 4 5 7 9 11 12 13 13 14 14 14 14 15 15 16 16 17 17 18 18 19 20 20 19 19 18 17 16 15 14 13 12 11 11 12 12 13 13 13 13 12 12 12 11 11 10 9 8 7 7 7 8 8 8 8 8 7 8 8 9 11 12 15 17 18 19
4 5 6 6 6 8 9 11 11 12 12 13 13 14 14 15 16 17 17 18 19 20 20 20 19 18 17 16 15 15 14 13 12 12 12 13 13 13 13 13 12 12 11 11 11 10 9 9 8 7 7 6 6 6 6 6 7 7 7 8 8 9 10 11 12 14 16 17 17
5 6 7 7 8 8 9 10 10 11 12 13 14 14 15 16 16 17 17 17 17 17 17 15 14 13 13 13 13 13 13 12 12 13 13 13 13 13 12 12 11 11 10 10 9 8 7 7 6 6 5 5 5 5 5 6 6 7 8 8 9 9 10 10 12 13 15 16 15
6 7 8 9 9 9 10 10 10 11 12 13 13 13 13 13 13 14 13 12 11 11 11 11 11 11 11 11 11 12 12 11 10 10 10 11 11 11 11 11 10 10 9 8 7 5 5 4 4 4 3 3 3 4 5 6 6 7 7 8 8 9 9 10 11 12 13 14 14
6 7 8 9 9 9 9 8 8 8 8 8 8 8 9 9 10 10 10 9 9 9 10 11 11 11 10 9 8 9 9 9 8 7 8 8 8 8 9 9 9 8 7 6 5 3 3 2 2 2 2 2 4 5 5 6 7 7 8 8 8 8 9 10 10 11 12 12 12
2 2 2 3 3 3 2 2 3 4 5 6 7 7 7 7 7 7 7 8 9 9 10 10 10 9 9 8 7 7 7 7 7 6 6 6 6 6 7 7 7 6 5 4 3 2 1 1 1 1 2 3 4 4 5 6 6 7 8 8 8 8 8 9 10 11 10 10 10
3 3 3 4 4 5 6 7 8 8 8 8 8 7 6 5 5 5 6 7 8 8 8 8 8 8 7 6 6 6 5 5 5 5 5 5 5 5 5 5 5 4 3 2 2 1 1 1 2 2 2 2 3 3 4 4 5 6 7 7 7 7 7 8 10 10 9 8 8
4 4 4 5 6 7 8 8 9 9 9 8 8 7 7 7 7 7 7 8 8 8 8 7 7 6 6 5 5 5 5 5 5 5 5 4 4 4 4 3 3 2 1 1 0 1 1 1 2 2 2 2 2 2 2 3 4 4 5 6 7 7 7 6 7 7 7 6 6
5 5 6 6 7 8 8 8 9 9 8 8 9 9 9 9 8 8 8 8 8 8 7 7 7 6 5 5 5 5 5 5 5 5 5 4 4 3 3 3 3 2 2 1 1 1 1 1 1 1 1 1 1 2 2 3 4 4 5 6 7 6 5 4 4 4 4 5 5
5 6 6 7 8 8 9 9 9 9 10 10 11 10 10 10 9 8 8 8 7 7 7 6 6 5 5 5 5 5 5 5 5 5 4 4 3 3 3 3 3 2 2 1 1 1 1 1 1 1 1 2 2 2 3 3 4 4 4 4 4 4 3 2 2 3 4 4 5
5 5 6 7 8 9 9 9 10 10 11 11 10 10 10 9 9 8 8 7 7 7 6 6 6 5 5 4 4 4 4 4 4 3 3 3 3 3 4 3 3 1 1 0 0 0 0 0 0 1 1 2 2 3 2 3 3 4 3 3 2 2 1 0 2 3 3 4 4
6 6 7 7 8 8 9 9 9 10 10 10 9 9 9 9 9 8 8 7 7 7 6 6 5 4 4 4 4 4 3 3 2 2 2 2 2 3 3 3 2 2 2 1 1 1 1 1 1 1 1 2 2 2 2 2 2 2 2 2 1 0 0 1 2 2 2 3 3
8 8 8 8 8 8 8 8 8 8 9 9 9 9 9 8 8 7 7 7 6 6 5 5 4 3 3 3 2 2 1 1 1 1 1 1 2 3 3 3 3 3 3 2 2 2 2 1 2 2 2 2 2 2 2 1 1 1 1 1 0 0 1 1 1 2 2 2 2
8 7 7 6 6 6 6 7 7 8 8 8 8 8 7 6 6 5 4 4 4 3 2 1 1 1 1 2 2 2 2 2 2 2 2 2 2 3 3 3 3 3 3 3 3 2 2 2 3 3 3 3 3 3 2 2 2 1 1 0 0 1 1 1 1 1 1 1 1
5 5 4 4 5 5 6 6 6 7 7 7 7 6 5 4 3 2 2 2 2 3 4 4 4 3 3 4 3 3 3 3 3 2 2 2 2 3 3 2 2 3 3 4 4 4 3 4 4 4 4 4 4 4 3 3 2 2 1 1 1 0 0 0 1 1 1 1 1
3 3 4 4 4 5 5 5 5 6 6 5 4 4 3 2 1 2 2 3 4 4 5 5 4 4 4 4 3 3 2 2 2 2 3 3 3 3 3 3 3 4 5 5 5 5 5 5 5 5 5 5 4 4 4 3 3 2 2 1 1 1 1 0 1 1 1 1 2
3 3 4 4 4 4 3 4 4 4 3 3 2 2 1 1 2 2 3 3 4 4 3 3 3 3 3 3 2 2 1 2 2 3 4 4 4 3 3 4 5 6 7 6 6 6 6 6 6 5 5 5 5 4 4 4 4 3 3 2 2 2 1 1 1 1 2 2 3
4 4 4 4 3 2 1 1 1 1 1 1 1 0 0 1 1 2 2 3 3 3 3 3 3 2 2 1 1 2 2 3 4 5 5 4 3 3 4 6 8 8 8 7 6 6 6 6 6 6 6 5 5 5 5 5 4 4 4 3 2 2 1 1 2 2 3 3 4
4 4 4 3 2 1 2 2 2 3 2 2 1 1 1 1 0 0 1 2 2 2 2 2 2 2 1 1 2 3 4 5 5 4 4 5 5 5 6 8 9 9 8 7 7 7 7 7 7 7 7 6 6 6 6 6 5 4 4 3 2 1 1 2 3 3 4 5 6
4 3 2 2 2 2 2 3 3 3 3 2 1 1 1 1 1 1 0 1 1 1 1 1 0 0 1 2 3 4 4 3 4 6 8 9 8 8 8 9 9 8 8 7 7 8 8 8 7 7 7 7 7 6 6 5 4 3 2 1 1 1 2 3 4 5 6 7 8
4 3 2 1 1 2 2 2 3 3 3 2 2 2 2 2 2 2 2 2 2 2 1 1 1 2 2 2 2 2 5 7 9 10 11 12 11 10 9 9 9 8 8 8 8 8 8 8 7 7 7 6 6 5 4 4 3 1 1 1 2 3 4 5 6 7 8 9 10
3 3 2 1 1 2 2 2 2 3 3 2 2 2 2 2 2 2 3 3 2 2 1 1 1 1 1 2 2 6 9 11 12 13 13 12 11 10 9 9 9 9 9 8 8 8 7 7 6 6 5 5 4 3 2 1 0 1 2 3 4 5 6 7 8 9 9 10 10
2 1 1 1 2 2 2 2 2 2 2 2 2 2 1 1 2 2 2 2 2 1 1 0 1 2 3 4 6 10 13 13 13 12 12 12 11 10 9 8 8 8 8 8 7 6 6 5 5 4 4 3 2 1 0 1 2 3 4 5 5 6 7 8 8 9 9 9 9
0 0 1 1 2 2 3 3 3 3 2 2 2 1 1 1 2 2 2 2 2 2 3 4 5 6 8 9 11 13 14 14 13 12 11 10 10 9 8 8 7 7 7 7 6 5 5 4 3 3 2 2 1 1 2 3 4 5 5 6 6 7 7 8 8 7 7 7 7
1 1 1 2 2 3 3 3 3 3 3 2 2 1 1 2 2 3 3 4 5 6 7 9 10 12 13 14 14 14 14 13 12 11 10 9 9 8 8 7 6 6 6 5 5 4 3 3 2 2 2 2 2 3 4 5 5 5 5 6 6 6 6 6 6 6 6 6 6
Wind_Direction
258 255 252 249 245 240 238 237 238 240 242 242 242 242 242 243 244 245 244 243 243 244 246 247 247 247 248 249 251 252 253 253 254 254 254 254 254 253 252 250 246 244 245 249 256 260 262 264 265 267 269 270 272 274 276 279 281 282 281 276 269 264 262 262 261 262 264 267 269
266 261 257 254 250 245 241 238 236 236 238 240 241 242 243 242 244 246 247 246 246 246 247 247 247 247 246 247 247 247 247 247 249 251 252 252 253 252 252 252 250 249 249 253 258 263 266 268 270 271 273 276 278 280 283 284 285 286 288 286 280 271 265 262 262 264 267 270 273
276 271 265 259 254 250 245 241 238 236 236 237 240 243 245 244 244 245 247 249 250 249 247 245 246 246 245 243 242 240 238 236 238 242 245 247 248 248 249 250 251 251 253 257 262 266 270 273 276 278 280 281 282 284 286 286 286 286 288 288 285 279 272 266 264 266 268 271 274
281 279 275 268 261 255 250 246 242 239 236 236 239 242 246 247 247 246 247 248 250 251 249 247 246 244 243 241 240 238 234 229 229 235 242 245 248 248 249 250 251 253 256 260 264 269 272 276 280 282 284 285 285 286 286 286 286 286 286 284 282 279 276 271 269 268 270 271 274
280 280 278 275 271 264 258 252 247 243 239 237 237 240 244 249 250 250 249 248 249 250 251 250 246 242 239 239 239 237 232 228 232 239 246 249 252 253 253 253 254 256 259 262 266 270 273 277 280 282 283 285 286 287 287 287 286 284 282 281 279 277 275 274 273 273 273 273 274
277 275 273 274 274 272 268 261 255 249 243 239 236 236 239 244 249 252 253 252 251 250 250 249 247 244 241 237 235 231 227 228 237 245 251 254 255 255 255 255 256 258 260 262 265 269 272 275 278 280 282 284 286 287 287 287 285 283 281 280 278 277 276 275 275 275 275 275 275
268 267 267 269 272 274 273 271 266 259 252 245 239 236 235 237 242 249 253 255 254 251 248 247 246 244 241 236 230 225 226 232 241 248 252 254 255 255 255 255 256 257 259 261 265 269 272 275 277 280 284 287 288 288 287 287 286 284 283 281 280 279 278 277 277 277 277 277 278
263 266 269 270 271 271 273 273 272 269 263 255 247 240 236 234 236 242 249 253 252 249 247 245 243 241 237 231 227 227 231 237 244 249 252 253 253 254 254 255 256 258 261 265 269 273 275 277 280 284 288 289 290 290 290 290 288 287 285 284 283 282 281 280 280 280 280 280 280
271 274 276 276 274 271 270 271 271 272 270 266 258 249 241 236 237 241 246 250 251 249 246 243 241 238 235 230 229 231 235 240 244 247 249 250 251 252 254 256 260 263 267 271 274 275 275 277 283 288 291 293 294 294 294 293 292 290 288 287 287 287 286 285 285 284 284 283 282
281 282 283 281 279 276 273 271 269 269 271 272 269 259 247 240 240 242 245 247 249 248 245 241 239 237 234 232 231 233 235 238 241 243 245 246 249 252 257 262 266 270 273 274 274 273 274 279 285 290 293 295 297 297 296 295 294 292 291 292 292 292 291 291 290 289 288 286 285
289 289 290 289 286 283 279 276 274 274 276 279 277 264 248 241 239 239 241 243 245 244 242 239 237 236 234 232 231 231 233 235 237 239 242 246 251 257 262 267 271 273 274 273 271 273 277 283 287 291 294 296 297 297 296 295 294 293 293 295 295 295 295 295 294 292 290 288 287
295 296 297 296 294 291 288 286 288 289 286 278 258 243 236 235 235 235 237 240 243 241 238 237 236 234 232 229 228 228 230 232 236 239 244 250 256 262 266 270 272 272 271 270 271 274 279 283 286 288 291 295 296 297 297 295 294 293 293 295 296 296 296 296 295 294 293 292 290
298 300 302 303 302 302 304 307 308 291 264 244 230 224 225 229 231 234 237 240 242 240 237 236 234 231 228 226 226 227 230 234 239 244 250 256 261 265 268 269 270 269 269 270 272 275 277 279 281 284 288 293 297 299 299 299 297 294 293 294 295 295 296 296 296 297 298 298 296
299 303 308 312 319 325 324 306 269 243 231 224 221 220 221 225 228 231 235 238 240 238 235 232 229 227 225 225 227 231 236 241 247 253 258 262 265 267 268 268 267 267 268 270 272 273 274 275 278 282 287 293 299 303 306 306 304 300 297 296 295 295 296 297 301 305 308 308 307
302 310 320 330 331 309 263 238 228 223 220 218 218 220 222 225 227 230 233 234 234 232 229 227 225 225 226 229 234 240 246 252 257 261 264 266 267 267 266 264 263 264 266 268 270 272 274 277 279 283 289 296 303 309 312 312 311 309 306 304 302 300 300 303 310 316 318 318 317
303 296 196 202 220 220 217 216 217 217 217 216 217 220 222 225 229 232 234 235 235 234 232 231 232 234 238 242 247 252 257 261 264 265 265 263 260 258 257 257 258 260 262 265 269 273 276 279 282 286 293 301 308 311 312 312 313 314 315 315 313 310 309 313 319 322 321 320 318
189 182 181 188 196 201 206 212 216 217 218 218 219 222 225 230 234 238 240 242 243 243 243 244 246 248 251 255 258 260 262 262 262 259 254 249 246 246 249 252 256 260 264 269 273 277 280 283 285 290 297 305 309 309 308 307 308 311 314 317 318 318 319 320 320 319 318 316 313
188 186 184 187 193 202 209 215 218 220 221 222 225 230 236 240 244 246 248 249 250 250 251 251 253 254 255 256 256 256 253 250 245 242 239 239 241 245 248 253 258 265 270 274 276 280 284 288 291 297 303 306 306 307 307 308 308 310 312 313 315 320 323 321 316 313 312 310 307
196 194 195 199 205 210 215 220 224 228 230 233 236 241 245 248 248 248 249 249 249 249 249 248 246 245 244 244 243 242 238 233 231 232 236 241 247 251 255 259 265 269 272 275 278 282 288 294 300 305 307 310 316 323 327 326 325 323 321 319 319 322 324 321 314 308 305 302 299
216 215 215 216 219 222 226 231 235 239 242 244 245 245 244 242 242 241 240 236 234 233 232 229 225 225 227 231 232 232 231 229 230 234 242 250 257 263 266 269 271 273 275 278 285 294 303 308 309 309 313 328 351 2 2 357 352 348 342 335 330 326 323 319 313 306 300 296 291
235 232 229 227 230 234 239 243 245 244 240 235 231 229 227 227 230 229 221 206 202 206 212 217 218 217 217 220 223 227 232 236 240 246 253 261 269 275 278 278 279 281 284 292 302 313 321 323 319 322 338 5 23 28 23 16 11 4 357 348 338 329 323 318 312 304 296 288 281
249 233 223 219 219 213 203 181 166 159 161 167 179 192 204 211 217 212 201 190 190 195 202 209 212 211 208 209 215 224 234 243 248 252 257 262 269 275 279 281 284 290 299 311 323 336 354 6 1 5 14 28 34 32 25 17 8 0 353 346 338 330 324 319 312 303 291 279 268
72 78 86 93 102 110 117 122 128 136 147 160 171 178 178 173 167 166 168 171 177 182 186 189 190 191 191 193 199 207 216 226 235 241 244 246 251 258 265 271 276 284 300 319 336 0 25 25 13 5 13 32 39 33 22 8 355 345 336 331 327 323 318 312 304 296 285 269 256
98 104 113 119 121 123 127 134 143 152 158 161 159 150 139 134 135 140 147 153 157 160 163 163 165 167 170 175 180 185 191 200 209 216 221 223 228 232 240 247 245 240 239 259 5 55 52 38 22 11 11 26 35 21 356 337 327 319 313 308 305 303 299 294 289 282 270 256 244
126 135 139 139 137 139 144 151 156 156 152 144 135 129 127 128 131 135 140 145 147 148 148 149 150 153 158 165 172 180 186 193 200 206 209 211 211 208 204 198 192 192 194 190 148 111 82 58 33 15 5 358 349 325 307 298 293 290 289 288 288 287 286 284 277 261 242 232 227
140 147 150 147 146 148 151 151 147 141 134 128 125 124 124 125 128 132 136 139 141 142 143 145 147 151 159 167 176 183 188 194 200 203 205 202 194 182 172 166 165 171 183 182 156 129 104 73 36 357 334 322 312 303 295 290 290 292 294 294 293 294 295 286 257 234 223 217 217
144 149 150 148 148 148 147 142 135 130 127 125 123 123 123 124 127 130 133 135 139 142 146 149 154 159 167 176 184 188 191 195 197 199 197 191 178 161 152 148 140 132 120 174 220 240 258 323 345 336 323 319 314 312 311 311 310 312 317 323 324 329 328 223 219 222 220 218 217
140 142 142 144 147 146 142 135 130 127 125 125 125 125 126 129 132 134 137 140 145 149 154 159 161 166 175 184 188 191 193 193 191 189 188 181 160 139 122 107 86 60 31 1 333 310 310 329 358 8 7 0 357 352 344 336 332 333 338 348 358 43 139 188 215 228 233 231 227
133 133 136 141 144 142 136 130 126 124 124 124 125 127 130 134 138 140 142 144 148 151 156 162 166 171 173 172 175 173 161 137 112 91 100 110 102 93 82 69 58 45 28 12 0 357 0 23 37 46 51 53 55 55 57 54 40 24 13 14 50 150 171 198 228 245 250 248 244
129 130 133 138 138 133 126 122 121 121 122 124 125 127 131 134 136 138 136 136 134 132 128 110 84 96 99 77 54 50 52 51 39 40 48 52 56 65 68 64 58 50 42 39 40 44 51 62 72 79 82 85 88 92 96 101 98 96 101 148 185 184 190 219 251 262 263 259 256
126 123 123 124 122 119 115 116 119 122 123 124 124 124 125 124 118 108 87 56 31 13 6 7 13 18 18 18 26 31 33 33 40 50 56 55 62 76 84 83 77 74 72 73 75 79 85 93 99 102 104 106 111 116 118 119 121 125 132 145 147 150 176 267 278 282 280 274 269
106 100 99 103 107 110 114 119 122 124 124 123 120 116 110 96 63 23 0 352 352 354 359 2 4 3 4 9 20 30 36 46 66 80 87 92 101 111 118 116 102 95 94 96 98 104 110 113 113 114 115 117 120 120 119 116 114 113 109 102 91 77 55 2 319 302 297 295 287
101 102 105 107 108 111 115 120 124 125 124 121 116 105 86 38 355 340 337 337 341 347 351 351 354 359 6 12 25 44 70 98 111 114 116 120 124 131 133 121 108 103 104 106 111 115 118 118 117 116 115 115 112 110 106 102 96 89 81 73 64 55 41 11 337 318 309 303 297
122 120 120 119 119 122 135 167 205 216 201 170 141 110 53 357 342 337 333 333 335 335 333 332 338 345 352 5 66 109 128 139 136 130 124 120 115 118 118 112 107 106 108 111 115 116 116 114 111 109 106 102 98 92 87 82 76 70 64 57 50 39 18 354 326 314 306 301 296
133 130 129 133 147 184 222 241 251 254 251 238 224 216 239 251 235 290 325 331 341 344 342 338 328 324 317 169 153 147 145 143 134 115 93 78 74 85 98 103 104 106 108 109 109 107 105 103 100 96 92 87 83 77 72 66 62 58 54 48 37 14 341 319 306 301 297 295 292
141 139 141 160 200 221 226 225 229 229 225 210 189 179 187 205 202 193 178 43 37 46 57 51 21 177 170 165 161 152 134 108 85 73 68 67 70 78 88 95 98 100 99 97 94 92 91 89 86 83 79 76 72 67 63 59 56 52 47 33 351 307 296 292 290 290 289 289 287
148 145 152 179 221 235 232 224 217 209 196 181 168 164 170 176 168 150 122 94 92 96 102 117 134 153 175 192 175 101 67 60 64 70 74 74 74 76 81 87 90 90 88 85 83 81 79 77 75 73 70 67 65 63 61 59 57 49 12 288 277 279 282 283 285 286 286 285 284
143 138 141 162 202 228 234 223 211 198 186 176 172 176 183 174 147 125 110 100 102 108 119 139 155 195 264 305 18 59 69 74 77 79 81 82 80 79 80 83 85 85 84 82 79 77 74 73 71 68 66 65 64 64 63 60 29 276 271 274 277 281 283 285 286 286 285 284 283
136 134 149 173 191 205 209 205 195 188 182 180 181 191 192 168 138 120 105 95 95 97 95 68 29 9 14 37 68 83 89 90 90 89 88 89 87 85 82 82 84 85 84 82 79 76 74 73 71 69 67 65 61 54 14 288 281 279 282 283 285 286 287 287 287 286 285 286 287
150 186 201 202 203 203 201 194 186 182 182 181 173 173 172 148 124 104 86 81 76 67 60 62 65 69 75 86 95 100 102 100 99 97 96 93 92 89 85 82 82 84 83 82 79 77 75 72 69 63 56 40 6 324 302 296 294 292 291 291 291 290 290 289 289 288 289 292 295
201 228 227 224 218 212 203 193 184 185 186 181 165 152 137 119 105 95 92 94 91 88 87 88 91 94 97 100 104 106 107 106 103 101 98 94 91 88 85 81 80 80 80 80 78 75 69 62 52 35 10 344 326 315 309 306 303 299 298 297 297 295 294 294 296 297 298 301 304
Height
1482 1482 1482 1483 1483 1484 1485 1485 1486 1487 1488 1488 1489 1490 1490 1491 1491 1491 1491 1491 1491 1492 1492 1492 1493 1494 1494 1494 1494 1493 1494 1494 1496 1496 1497 1497 1498 1498 1498 1497 1496 1497 1497 1497 1497 1498 1498 1498 1499 1499 1500 1500 1500 1500 1500 1501 1500 1499 1498 1497 1497 1498 1498 1498 1498 1498 1498 1497 1497
1481 1481 1481 1481 1482 1482 1483 1483 1484 1485 1486 1486 1487 1488 1488 1489 1490 1490 1489 1489 1490 1490 1491 1491 1491 1492 1492 1492 1492 1491 1491 1492 1493 1494 1495 1496 1496 1496 1496 1496 1496 1496 1496 1496 1496 1496 1496 1497 1497 1498 1498 1499 1499 1498 1498 1498 1498 1497 1496 1495 1495 1495 1495 1496 1496 1495 1495 1495 1495
1479 1480 1480 1480 1481 1481 1481 1482 1482 1483 1484 1485 1486 1486 1487 1487 1488 1488 1489 1489 1489 1489 1489 1489 1490 1490 1490 1490 1489 1490 1490 1491 1491 1491 1492 1493 1494 1494 1495 1494 1494 1494 1494 1495 1495 1495 1495 1496 1496 1496 1496 1497 1496 1496 1496 1496 1495 1495 1494 1493 1492 1492 1492 1492 1492 1493 1492 1492 1492
1478 1478 1479 1479 1479 1480 1480 1480 1481 1482 1482 1483 1484 1485 1486 1486 1486 1487 1487 1488 1488 1488 1488 1488 1488 1488 1488 1487 1487 1488 1488 1489 1490 1490 1491 1491 1491 1492 1492 1492 1493 1493 1493 1494 1494 1494 1494 1495 1495 1495 1495 1495 1495 1494 1494 1493 1493 1492 1491 1491 1491 1491 1490 1490 1490 1491 1490 1490 1489
1478 1478 1478 1478 1478 1478 1479 1479 1479 1480 1481 1481 1482 1483 1484 1485 1485 1486 1486 1486 1486 1487 1487 1487 1486 1486 1486 1486 1486 1486 1487 1487 1488 1488 1488 1488 1489 1490 1491 1491 1492 1492 1493 1493 1493 1493 1493 1493 1493 1493 1493 1493 1493 1492 1492 1491 1491 1490 1490 1490 1489 1489 1489 1488 1488 1489 1488 1487 1487
1476 1476 1477 1477 1477 1477 1477 1478 1478 1478 1479 1480 1481 1481 1482 1483 1484 1484 1485 1485 1485 1485 1485 1485 1485 1485 1485 1486 1486 1486 1486 1486 1486 1486 1487 1487 1488 1489 1490 1490 1491 1492 1492 1492 1492 1492 1492 1492 1491 1491 1491 1491 1491 1490 1490 1490 1489 1489 1488 1488 1488 1488 1487 1487 1486 1487 1486 1486 1485
1475 1475 1476 1476 1476 1476 1476 1477 1477 1477 1478 1478 1479 1480 1480 1481 1482 1483 1483 1483 1483 1483 1483 1483 1483 1483 1483 1484 1484 1484 1484 1484 1485 1485 1486 1486 1487 1488 1489 1490 1490 1491 1491 1491 1490 1490 1490 1490 1490 1490 1489 1489 1489 1488 1488 1488 1488 1487 1487 1487 1486 1486 1486 1485 1485 1485 1485 1484 1484
1474 1474 1474 1475 1475 1475 1476 1476 1476 1476 1476 1477 1477 1478 1479 1480 1480 1481 1481 1481 1481 1481 1481 1481 1481 1481 1481 1482 1482 1482 1483 1483 1484 1484 1485 1485 1486 1487 1488 1488 1489 1489 1489 1488 1488 1488 1488 1488 1488 1487 1487 1487 1486 1486 1486 1486 1486 1486 1485 1485 1485 1485 1484 1484 1484 1484 1484 1483 1482
1473 1473 1473 1474 1474 1474 1475 1475 1475 1475 1476 1476 1476 1477 1477 1478 1479 1479 1479 1479 1479 1479 1479 1479 1479 1479 1480 1480 1481 1481 1482 1482 1483 1483 1484 1484 1485 1486 1486 1487 1487 1487 1486 1486 1486 1486 1486 1486 1486 1485 1485 1485 1484 1484 1484 1484 1484 1483 1483 1483 1483 1483 1483 1482 1482 1482 1482 1481 1481
1472 1472 1472 1472 1472 1473 1473 1474 1474 1474 1475 1475 1475 1476 1476 1476 1476 1476 1476 1476 1477 1477 1477 1477 1477 1478 1478 1479 1480 1480 1481 1481 1482 1482 1483 1483 1484 1484 1484 1485 1485 1485 1485 1485 1485 1484 1484 1484 1484 1483 1483 1482 1482 1482 1482 1482 1482 1481 1481 1481 1481 1481 1481 1481 1481 1481 1480 1479 1479
1471 1471 1471 1471 1471 1471 1472 1472 1473 1473 1474 1474 1475 1475 1474 1474 1473 1473 1474 1474 1475 1475 1475 1475 1476 1476 1477 1478 1479 1479 1480 1480 1481 1481 1481 1482 1482 1482 1483 1483 1483 1483 1483 1483 1483 1482 1482 1482 1481 1481 1481 1481 1481 1480 1480 1480 1480 1480 1480 1480 1480 1480 1480 1480 1480 1479 1478 1477 1477
1469 1470 1470 1470 1470 1470 1471 1471 1472 1472 1473 1473 1473 1472 1471 1471 1471 1472 1472 1473 1473 1473 1474 1474 1475 1476 1476 1477 1478 1478 1479 1479 1480 1480 1480 1480 1481 1481 1481 1481 1481 1481 1481 1481 1481 1481 1480 1480 1480 1480 1479 1479 1479 1478 1478 1478 1478 1478 1478 1478 1479 1479 1479 1479 1478 1478 1477 1476 1476
1468 1468 1469 1469 1469 1469 1470 1471 1471 1471 1471 1471 1470 1470 1470 1470 1471 1471 1471 1472 1472 1473 1473 1473 1474 1475 1476 1476 1477 1477 1478 1478 1478 1478 1479 1479 1479 1479 1479 1479 1479 1479 1479 1479 1479 1479 1478 1478 1478 1478 1477 1477 1477 1476 1476 1476 1477 1477 1477 1477 1477 1477 1477 1477 1477 1477 1476 1476 1475
1467 1468 1468 1468 1468 1469 1469 1470 1470 1469 1468 1468 1468 1469 1469 1470 1470 1471 1471 1471 1471 1472 1472 1472 1473 1474 1475 1475 1476 1476 1476 1476 1477 1477 1477 1477 1477 1477 1477 1478 1478 1478 1478 1477 1477 1477 1477 1476 1476 1476 1476 1476 1475 1475 1475 1475 1476 1476 1476 1476 1476 1476 1476 1476 1476 1476 1475 1475 1474
1467 1467 1467 1467 1468 1468 1468 1468 1467 1467 1467 1467 1468 1468 1469 1469 1470 1470 1470 1471 1471 1471 1471 1472 1473 1473 1474 1474 1474 1475 1475 1475 1475 1476 1476 1476 1476 1476 1476 1476 1476 1476 1476 1476 1475 1475 1475 1475 1475 1475 1474 1474 1474 1474 1474 1474 1474 1474 1474 1474 1475 1475 1475 1475 1475 1475 1474 1474 1473
1466 1466 1466 1466 1466 1466 1466 1465 1465 1466 1466 1467 1467 1468 1468 1469 1469 1469 1470 1470 1470 1471 1471 1471 1472 1472 1472 1473 1473 1474 1474 1474 1474 1474 1475 1475 1475 1475 1475 1475 1474 1474 1474 1474 1474 1474 1474 1473 1473 1473 1473 1473 1473 1473 1473 1473 1473 1473 1473 1473 1474 1474 1474 1474 1474 1474 1473 1473 1472
1465 1465 1465 1465 1465 1464 1464 1464 1464 1465 1466 1466 1467 1467 1468 1468 1468 1468 1469 1469 1469 1470 1470 1471 1471 1471 1472 1472 1472 1473 1473 1473 1473 1474 1474 1474 1474 1473 1473 1473 1473 1472 1472 1472 1472 1472 1472 1472 1472 1472 1471 1471 1471 1471 1472 1472 1471 1472 1472 1472 1473 1473 1473 1473 1473 1473 1473 1473 1472
1464 1464 1464 1464 1463 1463 1463 1464 1464 1465 1465 1466 1466 1467 1467 1467 1467 1467 1468 1468 1468 1469 1469 1469 1470 1470 1471 1471 1471 1471 1472 1472 1472 1472 1472 1472 1472 1472 1472 1471 1471 1471 1471 1471 1471 1471 1471 1471 1471 1471 1471 1470 1470 1471 1470 1471 1471 1471 1471 1471 1472 1472 1472 1472 1472 1473 1473 1473 1472
1463 1463 1463 1463 1462 1462 1463 1463 1464 1464 1465 1465 1466 1466 1466 1466 1466 1466 1467 1467 1467 1467 1468 1468 1469 1469 1469 1470 1470 1470 1470 1471 1471 1471 1471 1471 1471 1471 1471 1471 1471 1471 1471 1471 1471 1471 1471 1470 1470 1470 1470 1470 1469 1469 1470 1470 1470 1470 1470 1471 1471 1471 1471 1471 1472 1472 1472 1472 1472
1462 1462 1462 1462 1462 1462 1463 1463 1463 1464 1464 1464 1464 1464 1465 1465 1465 1465 1466 1466 1466 1466 1467 1467 1467 1468 1468 1468 1469 1469 1469 1470 1470 1470 1470 1471 1471 1471 1471 1471 1471 1471 1471 1471 1470 1470 1470 1470 1469 1469 1469 1469 1469 1469 1469 1469 1469 1469 1470 1470 1470 1471 1471 1471 1471 1471 1471 1471 1471
1462 1461 1461 1461 1462 1462 1462 1463 1463 1463 1463 1463 1463 1463 1464 1464 1464 1464 1464 1465 1465 1465 1466 1466 1466 1467 1467 1468 1468 1468 1469 1469 1469 1470 1470 1470 1470 1470 1471 1471 1471 1470 1470 1470 1470 1469 1469 1469 1469 1469 1468 1468 1468 1468 1468 1469 1469 1469 1469 1469 1470 1470 1470 1470 1471 1471 1471 1471 1471
1461 1461 1461 1461 1462 1462 1462 1462 1462 1462 1462 1462 1462 1463 1463 1463 1463 1463 1464 1464 1464 1465 1465 1465 1466 1466 1466 1467 1467 1467 1468 1468 1469 1469 1469 1469 1469 1470 1470 1470 1470 1470 1469 1469 1469 1469 1468 1468 1468 1468 1468 1468 1468 1468 1468 1468 1468 1468 1468 1468 1469 1469 1470 1470 1470 1471 1471 1471 1471
1461 1461 1461 1461 1462 1462 1462 1462 1462 1462 1462 1462 1462 1462 1462 1462 1463 1463 1463 1464 1464 1464 1464 1465 1465 1465 1466 1466 1466 1466 1467 1467 1467 1468 1468 1468 1468 1468 1469 1469 1469 1468 1468 1468 1468 1468 1468 1468 1467 1467 1467 1467 1467 1467 1467 1467 1467 1467 1467 1467 1467 1467 1468 1469 1470 1470 1471 1471 1471
1461 1461 1461 1461 1461 1461 1461 1461 1461 1461 1461 1461 1462 1462 1462 1462 1462 1463 1463 1463 1463 1464 1464 1464 1465 1465 1465 1465 1466 1466 1466 1466 1466 1466 1467 1467 1467 1467 1467 1467 1467 1467 1467 1467 1467 1467 1467 1467 1467 1467 1467 1467 1467 1467 1467 1467 1466 1466 1466 1466 1466 1466 1467 1468 1469 1469 1470 1470 1470
1461 1461 1461 1461 1461 1461 1461 1461 1461 1461 1461 1461 1462 1462 1462 1462 1462 1462 1463 1463 1463 1463 1464 1464 1464 1464 1465 1465 1465 1465 1465 1466 1466 1466 1466 1466 1466 1466 1466 1466 1466 1466 1466 1466 1466 1466 1466 1466 1466 1466 1467 1467 1467 1466 1466 1466 1466 1465 1465 1465 1466 1466 1466 1467 1468 1469 1470 1470 1470
1461 1461 1461 1461 1461 1461 1461 1461 1461 1461 1461 1461 1462 1462 1462 1462 1462 1462 1463 1463 1463 1463 1463 1464 1464 1464 1465 1465 1465 1465 1465 1465 1465 1465 1465 1465 1465 1465 1465 1465 1465 1465 1465 1465 1465 1465 1466 1466 1466 1466 1466 1466 1466 1466 1466 1466 1466 1466 1466 1466 1466 1466 1466 1467 1469 1469 1470 1470 1470
1461 1461 1461 1462 1462 1461 1461 1461 1461 1461 1461 1461 1462 1462 1462 1462 1462 1462 1463 1463 1463 1463 1464 1464 1464 1464 1464 1465 1465 1465 1465 1465 1465 1465 1464 1464 1464 1464 1464 1464 1464 1464 1464 1464 1465 1465 1465 1466 1466 1466 1466 1466 1466 1466 1466 1466 1466 1466 1466 1466 1466 1466 1467 1468 1469 1469 1470 1470 1470
1461 1462 1462 1462 1462 1462 1462 1462 1461 1461 1461 1462 1462 1462 1462 1462 1462 1462 1463 1463 1463 1463 1464 1464 1464 1464 1464 1464 1464 1464 1464 1464 1464 1464 1464 1464 1464 1464 1463 1463 1463 1464 1464 1464 1464 1465 1465 1465 1465 1465 1465 1466 1466 1466 1466 1466 1467 1467 1467 1466 1466 1467 1467 1468 1469 1469 1470 1470 1470
1462 1462 1462 1462 1462 1462 1462 1461 1461 1461 1461 1461 1462 1462 1462 1462 1462 1462 1463 1463 1463 1463 1464 1464 1464 1464 1464 1464 1464 1464 1464 1464 1464 1464 1464 1463 1463 1463 1463 1463 1463 1464 1464 1464 1464 1464 1464 1465 1465 1465 1465 1465 1466 1466 1466 1466 1467 1467 1467 1467 1467 1467 1467 1468 1468 1469 1469 1470 1470
1462 1462 1462 1462 1462 1462 1461 1461 1461 1461 1461 1461 1461 1462 1462 1462 1462 1462 1462 1463 1463 1463 1463 1463 1463 1463 1463 1463 1463 1463 1463 1463 1463 1463 1463 1463 1463 1463 1463 1463 1464 1464 1464 1464 1464 1464 1464 1464 1464 1465 1465 1465 1465 1466 1466 1466 1467 1467 1467 1467 1467 1467 1468 1468 1469 1469 1470 1470 1470
1462 1462 1462 1462 1461 1461 1461 1461 1461 1461 1461 1461 1461 1461 1461 1461 1461 1462 1462 1462 1462 1462 1462 1463 1463 1463 1463 1463 1463 1463 1463 1463 1463 1463 1463 1463 1463 1463 1464 1464 1464 1464 1464 1464 1464 1464 1464 1464 1464 1465 1465 1465 1466 1466 1466 1466 1467 1467 1467 1467 1468 1468 1468 1469 1469 1470 1470 1470 1470
1462 1462 1461 1461 1461 1461 1461 1461 1461 1461 1461 1461 1461 1461 1461 1461 1461 1461 1462 1462 1462 1462 1462 1462 1462 1462 1462 1462 1462 1462 1463 1463 1463 1463 1463 1463 1463 1464 1464 1464 1464 1464 1464 1465 1465 1464 1464 1465 1465 1465 1465 1466 1466 1466 1466 1467 1467 1467 1468 1468 1468 1469 1469 1469 1470 1470 1470 1470 1471
1462 1462 1461 1461 1461 1461 1460 1460 1461 1461 1461 1461 1461 1461 1461 1461 1461 1461 1461 1461 1462 1462 1462 1462 1462 1462 1462 1462 1462 1462 1462 1462 1463 1463 1463 1463 1463 1464 1464 1464 1465 1465 1465 1465 1465 1465 1465 1465 1465 1465 1466 1466 1466 1466 1466 1467 1467 1468 1468 1468 1469 1469 1469 1470 1470 1470 1470 1471 1471
1461 1461 1461 1461 1461 1461 1461 1461 1461 1461 1461 1460 1460 1460 1460 1460 1461 1461 1461 1461 1461 1461 1461 1462 1462 1462 1462 1462 1462 1462 1462 1462 1463 1463 1463 1463 1464 1464 1464 1465 1465 1465 1465 1465 1465 1465 1465 1466 1466 1466 1466 1466 1466 1466 1467 1467 1467 1468 1468 1468 1469 1469 1470 1470 1470 1470 1471 1471 1471
1461 1461 1461 1460 1460 1461 1461 1461 1461 1460 1460 1460 1460 1460 1460 1460 1460 1460 1461 1461 1461 1461 1461 1461 1461 1462 1462 1462 1462 1462 1462 1462 1463 1463 1463 1464 1464 1464 1465 1465 1465 1465 1466 1466 1466 1466 1466 1466 1466 1466 1466 1466 1466 1467 1467 1467 1467 1468 1468 1469 1469 1469 1470 1470 1470 1470 1470 1471 1470
1461 1461 1460 1460 1460 1460 1460 1460 1460 1460 1460 1460 1460 1460 1460 1460 1460 1460 1461 1461 1461 1461 1461 1461 1461 1461 1462 1462 1462 1462 1463 1463 1463 1464 1464 1465 1465 1465 1465 1465 1466 1466 1466 1466 1466 1466 1466 1466 1466 1466 1466 1466 1466 1467 1467 1467 1468 1468 1468 1469 1469 1469 1470 1470 1470 1470 1470 1470 1470
1460 1460 1460 1460 1460 1460 1460 1460 1460 1460 1460 1460 1460 1460 1460 1460 1460 1460 1461 1461 1461 1461 1461 1461 1461 1461 1461 1462 1463 1463 1464 1464 1465 1465 1465 1465 1466 1466 1466 1466 1466 1466 1467 1467 1467 1467 1467 1467 1467 1467 1467 1467 1467 1467 1467 1467 1468 1468 1468 1469 1469 1469 1469 1469 1469 1469 1469 1469 1469
1460 1460 1460 1460 1460 1460 1460 1460 1460 1460 1460 1460 1460 1460 1460 1460 1460 1461 1461 1461 1461 1461 1461 1461 1461 1462 1462 1463 1464 1464 1465 1465 1465 1466 1466 1466 1466 1466 1467 1467 1467 1467 1467 1467 1467 1467 1467 1467 1467 1467 1467 1467 1467 1467 1467 1468 1468 1468 1468 1468 1469 1469 1469 1469 1469 1469 1469 1468 1468
1460 1460 1460 1460 1460 1460 1460 1460 1460 1460 1460 1460 1460 1460 1460 1461 1461 1461 1461 1461 1461 1461 1461 1462 1462 1463 1463 1464 1465 1465 1465 1466 1466 1466 1466 1466 1466 1467 1467 1467 1467 1467 1467 1467 1468 1468 1468 1468 1468 1468 1468 1468 1468 1468 1468 1468 1468 1468 1468 1468 1468 1468 1468 1468 1468 1468 1468 1467 1467
1460 1460 1460 1460 1460 1460 1460 1460 1460 1460 1460 1460 1460 1461 1461 1461 1461 1461 1461 1462 1462 1462 1462 1462 1463 1463 1464 1464 1465 1465 1466 1466 1466 1466 1466 1467 1467 1467 1467 1467 1467 1468 1468 1468 1468 1468 1468 1468 1468 1468 1468 1468 1468 1468 1468 1468 1468 1468 1468 1468 1468 1468 1467 1467 1467 1467 1467 1467 1466
1460 1460 1460 1460 1460 1460 1460 1460 1460 1460 1460 1460 1461 1461 1461 1461 1461 1461 1462 1462 1462 1462 1463 1463 1463 1464 1464 1465 1465 1466 1466 1466 1466 1467 1467 1467 1467 1467 1468 1468 1468 1468 1468 1468 1468 1468 1469 1468 1468 1468 1468 1468 1468 1468 1468 1468 1468 1467 1467 1467 1467 1467 1467 1467 1466 1466 1466 1466 1466